This demonstration page uses our WeatherBlox Daily Observations layout. Learn more.

Hourly Observations for August 23, 2019

Temp ( °F °C ) Dew Point ( °F °C ) Humidity (%) Winds ( mph kmh ) Pressure ( in mb ) Visibility ( mi km ) Precip ( " mm )
12:16 am 00:16 Mostly Cloudy 70 21 70 21 100 100 Calm 30 1016 10 16.09344 N/A
12:36 am 00:36 Mostly Cloudy 70 21 70 21 100 100 NE 3 6 30 1016 10 16.09344 N/A
12:55 am 00:55 Mostly Cloudy 70 21 70 21 100 100 NE 3 6 30 1016 10 16.09344 N/A
1:15 am 01:15 Mostly Cloudy 68 20 68 20 100 100 NE 3 6 30.03 1017 10 16.09344 N/A
1:35 am 01:35 Mostly Cloudy 68 20 68 20 100 100 NE 5 7 30.06 1018 10 16.09344 N/A
1:56 am 01:56 Partly Cloudy 68 20 68 20 100 100 NE 5 7 30.06 1018 10 16.09344 N/A
2:15 am 02:15 Mostly Cloudy 68 20 68 20 100 100 NE 3 6 30.06 1018 10 16.09344 N/A
2:35 am 02:35 Mostly Cloudy 68 20 68 20 100 100 NE 5 7 30.06 1018 10 16.09344 N/A
2:56 am 02:56 Partly Cloudy 68 20 68 20 100 100 NE 5 7 30.06 1018 10 16.09344 N/A
3:15 am 03:15 Clear 66 19 66 19 100 100 NE 5 7 30.06 1018 10 16.09344 N/A
3:36 am 03:36 Partly Cloudy 66 19 66 19 100 100 NE 5 7 30.06 1018 10 16.09344 N/A
3:56 am 03:56 Mostly Cloudy 66 19 66 19 100 100 Calm 30.06 1018 10 16.09344 N/A
4:16 am 04:16 Mostly Cloudy 66 19 66 19 100 100 NNE 5 7 30.06 1018 10 16.09344 N/A
4:36 am 04:36 Mostly Cloudy 66 19 66 19 100 100 NNE 5 7 30.03 1017 10 16.09344 N/A
4:55 am 04:55 Partly Cloudy 64 18 64 18 100 100 Calm 30.06 1018 10 16.09344 N/A
5:15 am 05:15 Clear 64 18 64 18 100 100 NE 3 6 30.06 1018 10 16.09344 N/A
5:36 am 05:36 Clear 63 17 63 17 100 100 NNE 5 7 30.06 1018 7 11.265408 N/A
5:55 am 05:55 Clear 63 17 63 17 100 100 NNE 3 6 30.06 1018 7 11.265408 N/A
6:16 am 06:16 Clear 63 17 63 17 100 100 NNE 5 7 30.06 1018 7 11.265408 N/A
6:36 am 06:36 Clear 63 17 63 17 100 100 N 6 9 30.09 1019 7 11.265408 N/A
6:55 am 06:55 Clear 63 17 63 17 100 100 NNE 3 6 30.09 1019 5 8.04672 N/A
7:15 am 07:15 Sunny 61 16 61 16 100 100 NNE 5 7 30.09 1019 4 6.437376 N/A
7:35 am 07:35 Sunny 63 17 63 17 100 100 NNE 5 7 30.12 1020 5 8.04672 N/A
7:55 am 07:55 Sunny 63 17 63 17 100 100 NE 3 6 30.12 1020 5 8.04672 N/A
8:16 am 08:16 Sunny 63 17 63 17 100 100 NE 3 6 30.12 1020 7 11.265408 N/A
8:36 am 08:36 Sunny 64 18 64 18 100 100 NE 6 9 30.12 1020 10 16.09344 N/A
8:55 am 08:55 Sunny 64 18 64 18 100 100 ENE 9 15 30.12 1020 10 16.09344 N/A
9:15 am 09:15 Sunny 64 18 64 18 100 100 ENE 8 13 30.15 1021 10 16.09344 N/A
9:35 am 09:35 Sunny 66 19 64 18 94 94 ENE 8 13 30.12 1020 10 16.09344 N/A
9:56 am 09:56 Sunny 68 20 64 18 88 88 ENE 8 13 30.15 1021 10 16.09344 N/A
10:16 am 10:16 Sunny 68 20 66 19 94 94 ENE 8 13 30.15 1021 10 16.09344 N/A
10:36 am 10:36 Sunny 70 21 66 19 88 88 NE 7 11 30.15 1021 10 16.09344 N/A
10:56 am 10:56 Sunny 72 22 66 19 83 83 ENE 6 9 30.15 1021 10 16.09344 N/A
11:15 am 11:15 Sunny 72 22 64 18 78 78 E 8 13 30.15 1021 10 16.09344 N/A
11:36 am 11:36 Sunny 72 22 64 18 78 78 E 8 13 30.15 1021 10 16.09344 N/A
11:55 am 11:55 Sunny 73 23 64 18 74 74 E 7 11 30.12 1020 10 16.09344 N/A
12:15 pm 12:15 Partly Cloudy 73 23 64 18 74 74 ENE 13 20 30.12 1020 10 16.09344 N/A
12:36 pm 12:36 Partly Cloudy 73 23 64 18 74 74 NE 10 17 30.12 1020 10 16.09344 N/A
12:56 pm 12:56 Partly Cloudy 73 23 63 17 69 69 ENE 9 15 30.12 1020 10 16.09344 N/A
1:16 pm 13:16 Partly Cloudy 75 24 63 17 65 65 NE 9 15 30.12 1020 10 16.09344 N/A
1:36 pm 13:36 Partly Cloudy 75 24 63 17 65 65 ENE 7 11 30.12 1020 10 16.09344 N/A
1:55 pm 13:55 Partly Cloudy 73 23 63 17 69 69 NE 10 17 30.12 1020 10 16.09344 N/A
2:16 pm 14:16 Partly Cloudy 75 24 63 17 65 65 NE 9 15 30.12 1020 10 16.09344 N/A
2:35 pm 14:35 Partly Cloudy 75 24 63 17 65 65 ENE 8 13 30.12 1020 10 16.09344 N/A
2:55 pm 14:55 Partly Cloudy 75 24 63 17 65 65 ENE 10 17 30.12 1020 10 16.09344 N/A
3:16 pm 15:16 Partly Cloudy 75 24 63 17 65 65 NE 13 20 30.12 1020 10 16.09344 N/A
3:36 pm 15:36 Sunny 73 23 61 16 65 65 ENE 8 13 30.12 1020 10 16.09344 N/A
3:56 pm 15:56 Partly Cloudy 75 24 63 17 65 65 NE 10 17 30.12 1020 10 16.09344 N/A
4:15 pm 16:15 Partly Cloudy 73 23 63 17 69 69 NE 10 17 30.12 1020 10 16.09344 N/A
4:35 pm 16:35 Partly Cloudy 75 24 63 17 65 65 ENE 10 17 30.12 1020 10 16.09344 N/A
4:56 pm 16:56 Partly Cloudy 75 24 63 17 65 65 ENE 10 17 30.12 1020 10 16.09344 N/A
5:15 pm 17:15 Partly Cloudy 73 23 61 16 65 65 NE 7 11 30.12 1020 10 16.09344 N/A
5:36 pm 17:36 Partly Cloudy 73 23 61 16 65 65 ENE 12 19 30.12 1020 10 16.09344 N/A
5:55 pm 17:55 Partly Cloudy 73 23 61 16 65 65 NE 10 17 30.12 1020 10 16.09344 N/A
6:15 pm 18:15 Sunny 73 23 61 16 65 65 ENE 10 17 30.12 1020 10 16.09344 N/A
6:35 pm 18:35 Sunny 73 23 61 16 65 65 ENE 8 13 30.12 1020 10 16.09344 N/A
6:55 pm 18:55 Partly Cloudy 72 22 61 16 69 69 ENE 7 11 30.15 1021 10 16.09344 N/A
7:16 pm 19:16 Sunny 70 21 61 16 73 73 ENE 7 11 30.15 1021 10 16.09344 N/A
7:36 pm 19:36 Sunny 70 21 61 16 73 73 NE 7 11 30.15 1021 10 16.09344 N/A
7:55 pm 19:55 Sunny 68 20 61 16 78 78 ENE 8 13 30.15 1021 10 16.09344 N/A
8:16 pm 20:16 Sunny 66 19 61 16 83 83 Calm 30.15 1021 10 16.09344 N/A
8:35 pm 20:35 Clear 64 18 61 16 88 88 Calm 30.15 1021 10 16.09344 N/A
8:55 pm 20:55 Clear 63 17 61 16 94 94 Calm 30.15 1021 10 16.09344 N/A
9:16 pm 21:16 Clear 61 16 61 16 100 100 Calm 30.15 1021 10 16.09344 N/A
9:35 pm 21:35 Clear 61 16 61 16 100 100 Calm 30.18 1022 10 16.09344 N/A
9:55 pm 21:55 Clear 59 15 59 15 100 100 Calm 30.18 1022 10 16.09344 N/A
10:15 pm 22:15 Clear 59 15 59 15 100 100 Calm 30.18 1022 10 16.09344 N/A
10:36 pm 22:36 Clear 57 14 57 14 100 100 Calm 30.18 1022 10 16.09344 N/A
10:55 pm 22:55 Clear 57 14 57 14 100 100 Calm 30.18 1022 10 16.09344 N/A
11:16 pm 23:16 Clear 57 14 57 14 100 100 Calm 30.18 1022 10 16.09344 N/A
11:36 pm 23:36 Clear 57 14 57 14 100 100 Calm 30.18 1022 10 16.09344 N/A
11:55 pm 23:55 Clear 55 13 55 13 100 100 Calm 30.21 1023 10 16.09344 N/A

Powered by AerisWeather